• In Belarus
  • List of Countries
  • For 7 days
  • Water Temperature
  • Satellite Maps
  • Weather Map
  • Weather Widgets
  • user-avatar
    Login

    Hourly Weather Fier

    Today, 17 January, Thursday

    Time Temperature Precipitation Wind Pressure Humidity
    00:00 +4°C° 0 mm 2 mps 766 mmHg 63%
    01:00 +4°C° 0 mm 2 mps 766 mmHg 63%
    02:00 +4°C° 0 mm 2 mps 765 mmHg 63%
    03:00 +4°C° 0 mm 2 mps 765 mmHg 62%
    04:00 +4°C° 0 mm 2 mps 765 mmHg 62%
    05:00 +4°C° 0 mm 2 mps 765 mmHg 62%
    06:00 +3°C° 0 mm 3 mps 765 mmHg 62%
    07:00 +3°C° 0 mm 3 mps 765 mmHg 61%
    08:00 +5°C° 0 mm 3 mps 765 mmHg 57%
    09:00 +8°C° 0 mm 3 mps 765 mmHg 54%
    10:00 +10°C° 0 mm 2 mps 764 mmHg 50%
    11:00 +12°C° 0 mm 2 mps 764 mmHg 47%
    12:00 +13°C° 0 mm 2 mps 764 mmHg 44%
    13:00 +14°C° 0 mm 2 mps 763 mmHg 40%
    14:00 +13°C° 0 mm 2 mps 763 mmHg 46%
    15:00 +12°C° 0 mm 2 mps 763 mmHg 51%
    16:00 +12°C° 0 mm 2 mps 763 mmHg 56%
    17:00 +10°C° 0 mm 3 mps 763 mmHg 59%
    18:00 +9°C° 0 mm 3 mps 763 mmHg 62%
    19:00 +7°C° 0 mm 4 mps 763 mmHg 64%
    20:00 +6°C° 0 mm 4 mps 763 mmHg 66%
    21:00 +6°C° 0 mm 4 mps 763 mmHg 68%
    22:00 +5°C° 0 mm 4 mps 763 mmHg 69%
    23:00 +5°C° 0 mm 4 mps 763 mmHg 71%

    Tomorrow, 18 January, Friday

    Time Temperature Precipitation Wind Pressure Humidity
    00:00 +5°C° 0 mm 4 mps 763 mmHg 73%
    01:00 +5°C° 0 mm 4 mps 762 mmHg 74%
    02:00 +6°C° 0.1 mm 4 mps 762 mmHg 76%
    03:00 +6°C° 0.1 mm 4 mps 762 mmHg 77%
    04:00 +6°C° 0.1 mm 4 mps 761 mmHg 79%
    05:00 +6°C° 2.2 mm 4 mps 761 mmHg 82%
    06:00 +6°C° 2.2 mm 4 mps 761 mmHg 86%
    07:00 +7°C° 2.2 mm 4 mps 761 mmHg 89%
    08:00 +7°C° 1.4 mm 4 mps 761 mmHg 88%
    09:00 +8°C° 1.4 mm 4 mps 761 mmHg 87%
    10:00 +8°C° 1.4 mm 5 mps 761 mmHg 86%
    11:00 +9°C° 0.5 mm 5 mps 761 mmHg 83%
    12:00 +10°C° 0.5 mm 5 mps 761 mmHg 80%
    13:00 +12°C° 0.5 mm 5 mps 761 mmHg 76%
    14:00 +10°C° 0.2 mm 5 mps 760 mmHg 77%
    15:00 +10°C° 0.2 mm 5 mps 760 mmHg 78%
    16:00 +10°C° 0.2 mm 5 mps 760 mmHg 78%
    17:00 +10°C° 0 mm 4 mps 760 mmHg 80%
    18:00 +8°C° 0 mm 4 mps 761 mmHg 81%
    19:00 +7°C° 0 mm 4 mps 761 mmHg 83%
    20:00 +7°C° 0 mm 4 mps 761 mmHg 83%
    21:00 +7°C° 0 mm 4 mps 761 mmHg 83%
    22:00 +7°C° 0 mm 4 mps 761 mmHg 83%
    23:00 +7°C° 0 mm 4 mps 761 mmHg 83%

    Day after tomorrow, 19 January, Saturday

    Time Temperature Precipitation Wind Pressure Humidity
    00:00 +7°C° 0 mm 4 mps 761 mmHg 83%
    01:00 +7°C° 0 mm 4 mps 761 mmHg 83%
    02:00 +7°C° 0 mm 4 mps 761 mmHg 83%
    03:00 +6°C° 0 mm 4 mps 761 mmHg 82%
    04:00 +6°C° 0 mm 4 mps 760 mmHg 82%
    05:00 +6°C° 0 mm 4 mps 760 mmHg 82%
    06:00 +6°C° 0 mm 4 mps 761 mmHg 81%
    07:00 +6°C° 0 mm 4 mps 761 mmHg 81%
    08:00 +8°C° 0 mm 4 mps 761 mmHg 76%
    09:00 +10°C° 0 mm 4 mps 761 mmHg 72%
    10:00 +12°C° 0 mm 4 mps 761 mmHg 67%
    11:00 +13°C° 0 mm 4 mps 760 mmHg 65%
    12:00 +14°C° 0 mm 4 mps 760 mmHg 64%
    13:00 +14°C° 0 mm 5 mps 760 mmHg 63%
    14:00 +13°C° 0.4 mm 4 mps 759 mmHg 68%
    15:00 +12°C° 0.4 mm 4 mps 759 mmHg 74%
    16:00 +11°C° 0.4 mm 4 mps 759 mmHg 80%
    17:00 +11°C° 0.2 mm 4 mps 759 mmHg 80%
    18:00 +10°C° 0.2 mm 4 mps 759 mmHg 81%
    19:00 +10°C° 0.2 mm 3 mps 760 mmHg 81%
    20:00 +10°C° 0.2 mm 3 mps 760 mmHg 81%
    21:00 +10°C° 0.2 mm 4 mps 760 mmHg 80%
    22:00 +10°C° 0.2 mm 4 mps 760 mmHg 80%
    23:00 +8°C° 0.5 mm 4 mps 760 mmHg 80%

    20 January, Sunday

    Time Temperature Precipitation Wind Pressure Humidity
    00:00 +8°C° 0.5 mm 4 mps 760 mmHg 80%
    01:00 +8°C° 0.5 mm 4 mps 760 mmHg 80%
    02:00 +9°C° 0.5 mm 3 mps 759 mmHg 80%
    03:00 +9°C° 0.5 mm 3 mps 759 mmHg 80%
    04:00 +9°C° 0.5 mm 3 mps 759 mmHg 80%
    05:00 +9°C° 0.5 mm 3 mps 759 mmHg 81%
    06:00 +8°C° 0.5 mm 3 mps 759 mmHg 82%
    07:00 +8°C° 0.5 mm 3 mps 759 mmHg 82%
    08:00 +9°C° 0.5 mm 3 mps 760 mmHg 78%
    09:00 +11°C° 0.5 mm 3 mps 760 mmHg 74%
    10:00 +12°C° 0.5 mm 3 mps 760 mmHg 69%
    11:00 +12°C° 0.5 mm 3 mps 760 mmHg 68%
    12:00 +13°C° 0.5 mm 3 mps 760 mmHg 66%
    13:00 +13°C° 0.5 mm 3 mps 759 mmHg 65%
    14:00 +14°C° 0.3 mm 2 mps 760 mmHg 69%
    15:00 +13°C° 0.3 mm 2 mps 760 mmHg 73%
    16:00 +13°C° 0.3 mm 1 mps 760 mmHg 76%
    17:00 +12°C° 0.1 mm 1 mps 760 mmHg 79%
    18:00 +11°C° 0.1 mm 1 mps 760 mmHg 81%
    19:00 +10°C° 0.1 mm 1 mps 761 mmHg 83%
    20:00 +10°C° 0 mm 1 mps 761 mmHg 84%
    21:00 +8°C° 0 mm 2 mps 761 mmHg 85%
    22:00 +8°C° 0 mm 2 mps 762 mmHg 85%
    23:00 +8°C° 0 mm 2 mps 762 mmHg 85%

    21 January, Monday

    Time Temperature Precipitation Wind Pressure Humidity
    00:00 +8°C° 0 mm 2 mps 762 mmHg 84%
    01:00 +7°C° 0 mm 2 mps 762 mmHg 84%
    02:00 +7°C° 0 mm 3 mps 761 mmHg 83%
    03:00 +7°C° 0 mm 3 mps 761 mmHg 83%
    04:00 +7°C° 0 mm 3 mps 761 mmHg 82%
    05:00 +7°C° 0 mm 3 mps 761 mmHg 81%
    06:00 +7°C° 0 mm 3 mps 761 mmHg 80%
    07:00 +5°C° 0 mm 3 mps 761 mmHg 79%
    08:00 +8°C° 0 mm 3 mps 761 mmHg 73%
    09:00 +10°C° 0 mm 3 mps 761 mmHg 67%
    10:00 +11°C° 0 mm 3 mps 761 mmHg 62%
    11:00 +12°C° 0.1 mm 3 mps 761 mmHg 59%
    12:00 +13°C° 0.1 mm 3 mps 760 mmHg 56%
    13:00 +14°C° 0.1 mm 3 mps 760 mmHg 53%
    14:00 +14°C° 0.2 mm 3 mps 760 mmHg 57%
    15:00 +13°C° 0.2 mm 3 mps 760 mmHg 61%
    16:00 +13°C° 0.2 mm 3 mps 759 mmHg 65%
    17:00 +12°C° 0.1 mm 3 mps 760 mmHg 68%
    18:00 +11°C° 0.1 mm 4 mps 760 mmHg 71%
    19:00 +10°C° 0.1 mm 4 mps 760 mmHg 75%
    20:00 +10°C° 0.3 mm 4 mps 760 mmHg 76%
    21:00 +10°C° 0.3 mm 4 mps 759 mmHg 76%
    22:00 +9°C° 0.3 mm 5 mps 759 mmHg 77%
    23:00 +9°C° 0.4 mm 5 mps 759 mmHg 78%

    22 January, Tuesday

    Time Temperature Precipitation Wind Pressure Humidity
    00:00 +8°C° 0.4 mm 4 mps 759 mmHg 78%
    01:00 +8°C° 0.4 mm 4 mps 758 mmHg 78%
    02:00 +8°C° 0.2 mm 5 mps 758 mmHg 77%
    03:00 +8°C° 0.2 mm 5 mps 757 mmHg 76%
    04:00 +8°C° 0.2 mm 6 mps 757 mmHg 75%
    05:00 +8°C° 0 mm 6 mps 756 mmHg 75%
    06:00 +8°C° 0 mm 6 mps 756 mmHg 74%
    07:00 +8°C° 0 mm 6 mps 756 mmHg 73%
    08:00 +9°C° 0 mm 6 mps 755 mmHg 69%
    09:00 +10°C° 0 mm 7 mps 755 mmHg 65%
    10:00 +12°C° 0 mm 7 mps 754 mmHg 60%
    11:00 +11°C° 0.6 mm 7 mps 754 mmHg 64%
    12:00 +11°C° 0.6 mm 7 mps 753 mmHg 68%
    13:00 +11°C° 0.6 mm 7 mps 752 mmHg 71%
    14:00 +10°C° 0.6 mm 6 mps 752 mmHg 74%
    15:00 +10°C° 0.6 mm 5 mps 752 mmHg 77%
    16:00 +11°C° 0.6 mm 4 mps 752 mmHg 80%
    17:00 +11°C° 1.1 mm 4 mps 752 mmHg 83%
    18:00 +10°C° 1.1 mm 4 mps 752 mmHg 86%
    19:00 +10°C° 1.1 mm 3 mps 752 mmHg 89%
    20:00 +8°C° 1.9 mm 4 mps 752 mmHg 90%
    21:00 +8°C° 1.9 mm 4 mps 753 mmHg 91%
    22:00 +7°C° 1.9 mm 4 mps 753 mmHg 91%
    23:00 +8°C° 0.4 mm 3 mps 753 mmHg 91%
    Show more